Location: Cedar Hill
(42.5445°N, 73.7735°W)
Time: 05:30:32
(UTC+00:00)

Daily predictions for brighter satellites

Satellite Brightness Start Highest point End
(mag) Time Altitude Azimuth Time Altitude Azimuth Time Altitude Azimuth
Cosmos 2026 Rocket 4.2 00:55:22 10° S 01:01:32 79° W 01:07:39 10° N
Cosmos 2082 Rocket 2.7 00:57:19 10° SSW 01:03:00 68° WNW 01:08:42 10° NNE
Cosmos 1707 2.9 01:01:38 10° SSE 01:05:05 44° E 01:08:32 10° NNE
Cosmos 2333 Rocket 4.1 01:01:23 10° N 01:05:15 18° NE 01:09:07 10° E
Cosmos 2369 3.9 01:00:45 10° NNW 01:06:31 80° WSW 01:12:13 10° SSE
RESURS DK-1 4.1 01:06:55 10° N 01:09:57 20° NE 01:12:59 10° E
MOS 1-B Rocket 4.2 01:04:57 10° S 01:11:07 76° WSW 01:16:48 10° NNW
PSLV R/B 3.8 01:07:55 10° S 01:11:27 73° WSW 01:14:57 10° NNW
ERS-1 Rocket 4.0 01:10:25 10° SE 01:14:47 31° ENE 01:19:11 10° N
Atlas Centaur 2 3.8 01:08:12 10° WSW 01:15:08 34° S 01:22:26 10° ESE
Cosmos 841 Rocket 4.5 01:12:51 10° N 01:17:39 34° ENE 01:22:25 10° SE
Cosmos 1763 Rocket 3.7 01:13:25 10° NNW 01:18:39 77° WSW 01:23:47 10° SSE
MetOp-B 4.4 01:14:52 10° SSE 01:20:04 55° ENE 01:25:17 10° N
USA 234 3.4 01:13:58 10° ENE 01:20:19 51° SE 01:26:38 10° SSW
CZ-4C R/B 3.6 01:16:55 10° NNE 01:20:59 55° E 01:25:00 10° S
Cosmos 1674 3.0 01:18:18 10° SSW 01:21:42 60° W 01:25:08 10° N
Terra 2.9 01:18:16 10° SE 01:22:18 29° ENE 01:26:21 10° N
SL-27 R/B 3.9 01:28:29 12° ESE 01:29:09 13° E 01:30:29 10° ENE
SL-4 R/B 4.3 01:28:46 10° WNW 01:31:50 22° N 01:35:01 10° NE
BREEZE-M DEB (TANK) 3.0 01:32:25 10° WSW 01:35:31 88° SSE 01:45:07 10° ENE
IRS-1A Rocket 4.4 01:31:48 10° SSE 01:37:13 64° ENE 01:42:41 10° N
Cosmos 1300 4.2 01:34:40 10° NNE 01:37:20 20° ENE 01:39:22 13° ESE
ARGOS Delta rocket 3.6 01:36:22 10° SSE 01:40:50 79° ENE 01:45:14 10° N
Cosmos 1980 Rocket 3.8 01:36:35 10° NW 01:41:29 31° WSW 01:46:21 10° SSW
Cosmos 1441 Rocket 3.0 01:39:51 10° N 01:43:29 90° W 01:46:53 12° S
Cosmos 2322 Rocket 2.9 01:38:27 10° NNW 01:43:51 42° ENE 01:48:23 14° SE
Cosmos 1400 Rocket 2.9 01:40:25 10° S 01:44:12 52° E 01:47:57 10° NNE
Meteor 1-22 Rocket 4.4 01:40:53 10° N 01:46:32 61° ENE 01:51:40 13° SSE
Meteor 2-10 Rocket 4.1 01:41:40 10° N 01:47:00 45° ENE 01:51:05 15° SE
Okean-O 3.3 01:43:59 10° S 01:48:17 54° W 01:52:38 10° NNW
Cosmos 1908 3.2 01:44:44 10° NNW 01:48:21 75° W 01:51:48 11° S
Meteor 1-4 Rocket 4.5 01:49:01 10° E 01:49:03 10° E 01:49:10 10° E
ATLAS CENTAUR R/B 1.1 01:46:13 10° SSW 01:49:33 49° ESE 01:53:00 10° NE
Cosmos 1356 Rocket 4.2 01:46:47 15° SSE 01:49:41 33° E 01:53:28 10° NNE
Cosmos 468 Rocket 4.4 01:46:15 10° NNW 01:51:23 59° WSW 01:56:26 10° S
Ariane Rocket 3.4 01:49:18 15° SE 01:53:15 49° ENE 01:58:10 10° N
Cosmos 2278 3.8 01:51:13 10° NNW 01:56:56 77° WSW 02:01:45 15° SSE
USA 245 3.2 01:54:39 18° SSE 01:57:06 69° ENE 02:01:25 10° N
ATLAS 2AS CENTAUR R/B 3.3 01:54:29 10° NNW 02:01:04 48° NE 02:06:25 15° ESE
Timation 1 Rocket 4.3 01:57:55 10° SSW 02:03:53 89° ESE 02:09:53 10° NNE
Cosmos 1953 4.4 02:03:10 10° NE 02:04:51 12° ENE 02:06:11 11° E
Cosmos 1470 4.4 02:01:59 10° NNW 02:05:13 29° W 02:08:27 10° SSW
Cosmos 2228 Rocket 3.3 02:02:00 16° SSE 02:05:30 54° E 02:09:59 10° NNE
Cosmos 1869 Rocket 3.8 02:01:21 10° NNW 02:05:48 72° W 02:09:37 14° S
Okean O Rocket 4.0 02:04:09 10° SW 02:07:13 18° W 02:10:18 10° NW
Cosmos 1850 Rocket 3.9 02:02:23 10° S 02:07:36 73° ESE 02:12:47 10° NNE
Cosmos 2219 Rocket 3.5 02:03:10 10° N 02:08:02 28° NE 02:11:59 14° ESE
BREEZE-M DEB (TANK) 3.4 02:06:41 10° NW 02:08:34 29° NNE 02:11:01 11° E
S3M 4.1 02:03:51 10° N 02:10:15 87° W 02:15:45 14° S
MOS 1 Rocket 3.6 02:07:55 18° SSE 02:11:56 73° ENE 02:17:13 10° N
BlueWalker 3 3.6 02:14:18 17° E 02:14:18 17° E 02:15:37 10° E
Landsat 4 3.5 02:11:53 27° SSE 02:13:35 63° ENE 02:17:00 10° N
Cosmos 2266 Rocket 4.3 02:11:16 10° SSW 02:17:34 73° W 02:23:59 10° N
Cosmos 968 Rocket 3.4 02:15:24 12° S 02:20:08 65° ESE 02:25:17 10° NNE
SeaSat 1 2.5 02:18:09 22° SSE 02:21:24 77° WSW 02:26:20 10° NNW
SPOT 3 Rocket 3.5 02:20:05 21° SSE 02:23:33 84° ENE 02:28:44 10° NNW
Cosmos 1655 Rocket 4.0 02:17:55 10° S 02:24:16 88° E 02:30:42 10° N
Tiangong 0.2 02:23:22 10° WSW 02:24:57 13° SSW 02:24:57 13° SSW
SPOT 5 4.1 02:22:26 10° SSW 02:26:16 31° W 02:30:10 10° NNW
SL-14 R/B 3.2 02:24:50 18° SSW 02:27:33 76° W 02:31:21 10° N
Cosmos 1741 Rocket 4.1 02:22:57 10° SSW 02:28:13 79° WNW 02:33:33 10° NNE
Landsat 5 3.5 02:26:58 10° NNE 02:30:57 55° ESE 02:32:47 30° SSE
Cosmos 2360 Rocket 2.2 02:27:51 10° NNW 02:33:34 80° ENE 02:36:45 27° SSE
Cosmos 1346 Rocket 2.6 02:30:40 10° N 02:34:32 88° E 02:36:07 34° S
Cosmos 1814 Rocket 4.3 02:29:51 10° NNW 02:35:04 55° ENE 02:37:47 27° SE
Cosmos 1455 3.5 02:32:54 10° NNE 02:35:42 22° ENE 02:36:13 21° E
Okean 3 3.4 02:34:34 30° S 02:36:27 68° E 02:40:36 10° NNE
Cosmos 1862 Rocket 3.5 02:33:48 23° S 02:36:27 85° E 02:40:55 10° N
COSMOS 2455 4.1 02:44:44 21° ESE 02:45:18 22° ESE 02:49:42 10° ENE
SL-16 R/B 3.2 02:40:22 10° NW 02:45:37 40° WSW 02:49:14 19° SSW
RESURS DK-1 3.3 02:44:01 10° NW 02:47:49 39° WSW 02:49:28 26° SSW
Cosmos 2333 Rocket 2.2 02:44:29 10° NNW 02:50:16 84° WSW 02:53:10 31° SSE
SJ 16-02 1.3 02:50:25 23° SSW 02:53:04 80° WNW 02:57:25 10° NNE
ERS-1 Rocket 4.4 02:49:41 13° SSW 02:53:27 32° W 02:57:57 10° NNW
Cosmos 1758 4.4 02:53:02 10° NNW 02:56:40 37° W 02:58:34 23° SW
Cosmos 1707 Rocket 4.5 02:53:33 16° SSW 02:56:56 47° WNW 03:01:14 10° N
Terra 3.3 02:56:42 15° SSW 02:59:49 30° W 03:03:58 10° NW
SL-27 R/B 4.4 02:59:50 11° WSW 03:01:51 20° WNW 03:04:03 10° NNW
CZ-2C R/B 4.1 02:59:00 10° NNE 03:03:13 42° E 03:03:53 39° ESE
USA 234 4.0 02:57:00 10° NE 03:03:19 53° NNW 03:09:38 10° WSW
Atlas Centaur 2 4.0 02:57:05 10° WSW 03:03:36 26° SSW 03:05:10 25° S
DNEPR-1 R/B 4.3 02:58:13 10° NNW 03:04:47 73° NE 03:07:12 35° SE
SL-08 R/B 4.4 03:04:03 32° S 03:07:00 70° E 03:13:05 10° NNE
Cosmos 2237 Rocket 4.3 03:04:47 10° N 03:08:34 18° NE 03:12:20 10° E
Aureole 3 4.1 03:06:44 26° SW 03:08:44 51° WNW 03:13:23 10° N
SL-4 R/B 4.0 03:08:08 10° NW 03:11:31 26° NNE 03:15:03 10° ENE
Cosmos 1300 4.5 03:09:08 10° NW 03:11:59 23° W 03:13:23 18° WSW
CZ-4C R/B 3.0 03:13:34 24° E 03:13:34 24° E 03:16:56 10° ENE
Meteor 1-16 Rocket 4.4 03:06:59 10° NNW 03:12:54 74° W 03:15:43 33° S
Cosmos 2322 4.2 03:07:25 10° NNW 03:12:56 50° ENE 03:15:19 31° ESE
ARIANE 5 R/B 3.0 03:15:40 41° ESE 03:16:35 49° ENE 03:20:47 10° N
Cosmos 2333 4.4 03:13:10 10° NNW 03:18:52 64° WSW 03:21:08 37° S
Cosmos 1733 Rocket 4.5 03:15:08 10° NNW 03:19:02 31° W 03:21:05 21° SW
Okean 1-7 3.3 03:19:44 36° SSW 03:21:18 63° W 03:25:36 10° N
Meteor 1-4 Rocket 3.7 03:21:00 27° W 03:21:32 29° WNW 03:24:12 10° NNW
ATLAS CENTAUR R/B 4.1 03:25:18 10° W 03:27:29 15° NW 03:29:42 10° N
Cosmos 2322 Rocket 3.6 03:22:51 10° NW 03:27:40 29° WSW 03:30:11 21° SW
Cosmos 1486 Rocket 4.4 03:29:37 41° ESE 03:30:14 42° ESE 03:35:07 10° NNE
Okean 2 4.1 03:30:42 34° SW 03:31:56 45° WNW 03:35:49 10° N
Cosmos 2297 Rocket 3.1 03:32:33 29° ESE 03:32:51 29° ESE 03:37:40 10° NE
Cosmos 1242 Rocket 3.3 03:34:06 38° NNW 03:34:06 38° NNW 03:36:01 10° N
Cosmos 1908 Rocket 3.6 03:29:41 10° NNW 03:34:00 70° W 03:34:47 55° SSW
GP-B 3.0 03:30:35 10° N 03:35:00 89° ENE 03:35:47 61° S
Cosmos 1782 Rocket 3.5 03:32:39 10° N 03:36:57 63° E 03:37:25 58° ESE
Spot 4 4.5 03:38:28 38° ESE 03:39:34 44° ENE 03:44:08 10° N
Cosmos 1315 Rocket 4.1 03:38:29 26° WSW 03:39:56 35° WNW 03:43:37 10° N
Cosmos 1953 2.8 03:37:17 10° NNW 03:40:57 44° W 03:41:18 43° WSW
PSLV R/B 3.7 03:45:23 10° N 03:49:23 82° WNW 03:49:38 76° SW
H-2A R/B 4.3 03:47:59 10° ENE 03:49:29 13° E 03:49:29 13° E
BlueWalker 3 2.6 03:48:25 22° WSW 03:50:36 53° NNW 03:54:16 10° NE
Cosmos 1745 Rocket 4.0 03:48:52 40° S 03:51:22 87° W 03:57:47 10° N
ATLAS 2AS CENTAUR R/B 3.4 03:45:42 10° NW 03:51:47 37° WSW 03:53:49 30° SSW
Cosmos 2219 Rocket 2.8 03:46:45 10° NW 03:52:10 46° WSW 03:53:40 38° SSW
Cosmos 1300 Rocket 3.3 03:49:28 10° N 03:53:47 80° E 03:54:04 74° SE
Meteor 2-5 Rocket 4.2 03:53:35 41° SE 03:54:51 47° E 04:00:26 10° NNE
Cosmos 405 Rocket 4.4 03:51:56 10° NNE 03:54:54 22° ENE 03:54:54 22° ENE
COSMOS 2428 2.6 03:49:33 10° NNW 03:55:17 87° ENE 03:56:49 51° SSE
USA 281 3.2 03:54:59 43° SSE 03:57:23 78° WSW 04:04:00 10° NNW
Cosmos 304 Rocket 3.9 03:58:20 53° ESE 03:58:25 53° ESE 04:03:04 10° NNE
Cosmos 1408 3.6 04:03:14 36° N 04:03:14 36° N 04:05:10 10° N
Nadezhda 1 Rocket 4.1 03:56:01 10° NNW 04:02:15 71° W 04:04:20 43° SSW
Cosmos 1570 Rocket 4.2 03:59:57 10° NNW 04:05:13 59° WSW 04:06:15 50° SSW
ALOS 2 2.8 04:06:37 54° E 04:07:00 57° ENE 04:11:19 10° N
Cosmos 158 Rocket 3.9 04:03:13 10° NNW 04:08:31 79° WSW 04:09:23 61° S
Okean 2 Rocket 4.5 04:05:33 10° NNE 04:09:22 27° ENE 04:09:56 26° E
Cosmos 1455 4.0 04:07:23 10° NW 04:09:56 20° W 04:09:56 20° W
Cosmos 2360 Rocket 4.3 04:13:52 10° WNW 04:16:46 14° W 04:18:30 13° WSW
Cosmos 1703 3.4 04:18:25 63° N 04:18:25 63° N 04:21:34 10° N
Cosmos 1892 4.4 04:19:11 22° ENE 04:19:11 22° ENE 04:21:08 10° NNE
BREEZE-M DEB (TANK) 4.4 04:10:50 10° WNW 04:21:43 44° N 04:25:11 10° ENE
H-2A R/B 2.8 04:22:37 56° WSW 04:22:39 56° W 04:26:52 10° NNW
Spot 2 4.3 04:23:04 65° SSE 04:23:51 86° ENE 04:28:56 10° NNW
Cosmos 2221 Rocket 4.4 04:27:05 39° E 04:27:05 39° E 04:31:08 10° NNE
COSMOS 2455 3.1 04:27:48 31° SW 04:30:40 64° WNW 04:36:41 10° NNE
Cosmos 773 Rocket 3.8 04:26:16 10° NNW 04:31:27 88° ENE 04:32:11 67° SSE
Cosmos 2242 Rocket 4.2 04:31:59 43° WSW 04:32:38 47° WNW 04:37:04 10° N
Cosmos 2333 Rocket 4.5 04:31:58 10° W 04:33:35 11° W 04:35:10 10° WSW
Sich 1 Rocket 4.0 04:31:09 10° N 04:35:25 48° ENE 04:35:34 48° E
SL-23 DEB 4.4 04:37:07 63° SSW 04:37:54 77° SE 04:45:30 10° ENE
NOSS 0 Rocket 4.0 04:34:03 10° NNW 04:40:13 65° WSW 04:41:34 52° SSW
CZ-3 Stage 3 4.3 04:19:17 10° W 04:41:48 34° SW 04:43:32 33° SSW
Cosmos 1825 3.3 04:45:15 35° NE 04:45:15 35° NE 04:47:33 10° NNE
Cosmos 1777 Rocket 4.0 04:44:04 60° SW 04:45:02 80° WNW 04:50:21 10° NNE
Cosmos 1503 Rocket 4.2 04:44:15 49° SW 04:45:31 66° WNW 04:50:49 10° NNE
CENTAUR R/B 2.5 04:46:01 48° SE 04:46:33 50° ESE 04:52:55 10° NE
SL-16 R/B 3.7 04:41:38 10° N 04:46:36 30° NE 04:50:11 16° ESE
SL-4 R/B 2.1 04:46:39 10° NW 04:50:42 74° NNE 04:50:42 74° NNE
Cosmos 371 Rocket 4.3 04:49:55 32° WSW 04:51:16 39° WNW 04:55:48 10° N
Cosmos 2237 Rocket 2.1 04:47:39 10° NNW 04:53:20 82° WSW 04:54:21 61° S
Cosmos 2227 Rocket 2.1 04:55:36 61° S 04:56:32 75° ESE 05:02:13 10° NNE
GEOS 3 Rocket 3.6 04:54:39 10° NE 04:59:44 57° ESE 04:59:59 57° SE
Meteor 1-24 Rocket 4.3 04:58:53 38° WSW 05:00:34 50° WNW 05:06:04 10° N
CZ-4C R/B 3.0 04:58:36 25° W 05:00:48 40° NW 05:06:03 10° NNE
Cosmos 2184 Rocket 4.0 05:04:30 52° S 05:06:12 82° E 05:12:36 10° N
Cosmos 1980 3.7 05:01:00 10° NNW 05:06:34 60° WSW 05:07:17 55° SW
Okean 1 Rocket 3.1 05:02:54 10° N 05:07:15 69° E 05:07:20 68° E
PSLV R/B 4.1 05:09:57 10° N 05:13:58 45° WNW 05:14:11 44° W
Cosmos 2297 Rocket 3.1 05:14:19 28° WSW 05:16:41 41° WNW 05:22:02 10° NNE
Aureole 1 Rocket 3.7 05:21:02 37° ENE 05:21:02 37° ENE 05:24:18 10° NNE
Cosmos 2219 3.2 05:19:41 55° SSE 05:20:35 64° ESE 05:26:09 10° NNE
Cosmos 2084 Rocket 4.4 05:19:51 35° W 05:20:46 40° NW 05:24:43 10° NNE
Cosmos 2154 Rocket 3.9 05:21:34 52° S 05:23:17 90° E 05:29:36 10° N
Cosmos 1898 Rocket 4.1 05:25:01 39° ESE 05:25:37 41° ESE 05:30:28 10° NE
H-2A R/B 2.4 05:22:00 10° N 05:26:08 52° WNW 05:26:17 51° W
Cosmos 1975 Rocket 3.8 05:28:55 40° ESE 05:29:11 40° E 05:33:18 10° NNE
NOSS 3-2 (A) 3.0 05:34:24 60° S 05:35:13 72° ESE 05:41:07 10° NE
Cosmos 292 Rocket 3.7 05:35:18 63° SE 05:35:41 66° ESE 05:40:28 10° NNE
Resurs 1-4 Rocket 4.2 05:35:47 10° NE 05:38:52 16° E 05:41:06 12° ESE
NOSS 3-2 (C) 3.9 05:41:30 33° SE 05:42:07 34° ESE 05:47:19 10° NE
Cosmos 1455 Rocket 3.1 05:39:05 10° N 05:43:33 71° E 05:44:01 64° SE
Okean 2 Rocket 4.4 05:43:31 10° NNW 05:47:13 27° W 05:47:13 27° W
Cosmos 2263 Rocket 2.1 05:47:06 54° S 05:48:20 75° ESE 05:53:54 10° NNE
Helios 1A Rocket 3.5 05:48:10 42° E 05:48:37 44° ENE 05:52:15 10° N
Elektron 3 4.3 05:43:23 10° NW 05:48:42 76° NE 05:48:57 72° E
Cosmos 1461 3.3 05:53:11 47° E 05:53:11 47° E 05:56:35 10° NE
Cosmos 1025 Rocket 3.3 05:52:53 51° W 05:53:07 52° W 05:57:20 10° N
TIMED 4.5 06:00:01 62° W 06:00:24 66° WNW 06:04:42 10° NNE
Cosmos 1818 4.2 06:00:45 10° NNW 06:06:09 56° NE 06:11:04 12° SE
Cosmos 1844 Rocket 4.4 06:05:47 17° SE 06:08:00 21° E 06:12:07 10° NE
Cosmos 2341 Rocket 3.9 06:11:20 41° S 06:13:40 87° E 06:19:55 10° N
Cosmos 1869 3.4 06:10:29 10° N 06:14:08 57° E 06:14:31 54° ESE
COBE Rocket 4.2 06:12:37 10° NNE 06:17:46 65° E 06:19:27 41° SSE
Cosmos 1437 Rocket 4.4 06:19:56 21° ESE 06:21:00 24° E 06:24:05 10° NE
In-Cosmos 22 Rocket 4.4 06:19:43 42° SW 06:21:38 66° WNW 06:27:27 10° N
IDEFIX/ARIANE 42P 3.0 06:20:43 10° NNE 06:25:51 54° E 06:27:56 33° SSE
SL-16 R/B 2.6 06:25:29 10° NW 06:30:50 44° WSW 06:32:00 39° SW
Cosmos 1900 4.4 06:31:56 45° SSW 06:33:28 76° ESE 06:38:35 10° NE
CZ-2C R/B 4.1 06:30:18 10° NNE 06:35:18 39° E 06:38:01 23° SSE
Cosmos 858 Rocket 4.4 06:34:25 43° SSW 06:36:12 81° WNW 06:41:27 10° NNE
Cosmos 2237 Rocket 4.3 06:35:27 10° W 06:36:08 10° W 06:36:08 10° W
CENTAUR R/B 3.8 06:33:07 15° W 06:37:26 35° NW 06:43:53 10° NNE
Cosmos 2082 4.3 06:36:51 30° WSW 06:39:15 47° WNW 06:44:41 10° NNE
CZ-2C R/B 3.1 06:36:31 18° SSE 06:40:22 59° ENE 06:45:40 10° N
MOZ.5/SAFIR/RUBIN 5/SL-8 3.7 06:39:24 43° S 06:40:50 72° WSW 06:45:28 10° NNW
Cosmos 2227 Rocket 4.2 06:37:23 11° W 06:41:12 19° NW 06:45:13 10° N
MSX 4.0 06:36:30 10° NNE 06:42:13 67° ESE 06:45:07 30° S
CZ-2D R/B 2.5 06:37:45 10° NNE 06:43:00 55° E 06:45:37 28° SSE
Cosmos 1821 Rocket 4.1 06:40:25 28° S 06:43:46 69° E 06:49:52 10° NNE
Cosmos 1943 3.3 06:39:03 10° NNW 06:44:41 77° ENE 06:49:35 14° SSE
USA 238 DEB 3.7 06:45:17 32° S 06:48:10 61° ESE 06:54:40 10° NE
USA 238 3.7 06:45:20 32° S 06:48:13 60° ESE 06:54:43 10° NE
Cosmos 2218 Rocket 4.1 06:45:40 33° SSW 06:48:30 66° W 06:54:41 10° N
Cosmos 1606 2.9 06:45:47 10° NNW 06:49:12 45° W 06:49:14 45° W
Cosmos 1867 3.8 06:49:37 33° S 06:51:55 61° ESE 06:57:19 10° NE
Cosmos 2228 2.9 06:47:44 10° N 06:52:03 79° W 06:53:30 41° S
Iridium 921 4.4 06:53:24 58° WSW 06:53:42 61° W 06:57:08 10° N
Cosmos 2366 rocket 4.2 06:51:04 31° SW 06:53:58 57° W 07:00:08 10° N
Cosmos 1544 Rocket 3.8 06:50:59 10° NNW 06:55:18 52° W 06:56:27 40° SW
H-2A R/B 3.2 06:54:12 10° NNE 06:58:12 83° WNW 06:59:26 43° SSW
Cosmos 923 Rocket 4.4 06:54:40 10° NNW 06:59:36 42° WSW 07:01:11 33° SW
Cosmos 1937 Rocket 4.4 07:00:05 25° WSW 07:02:26 38° WNW 07:07:20 10° N
NPP 3.7 06:57:35 10° N 07:02:59 74° WNW 07:05:42 30° SSW
ADEOS II 2.5 06:58:01 10° NNE 07:03:11 55° E 07:06:30 22° S
ALOS 3.7 07:01:56 10° NNE 07:06:04 32° E 07:09:34 13° SSE
Cosmos 2227 4.4 07:11:34 27° SW 07:14:40 63° WNW 07:20:24 10° NNE
Resurs 1-4 Rocket 2.2 07:13:52 10° N 07:19:07 68° WNW 07:22:10 25° SSW
SL-16 R/B 2.9 07:16:51 10° SSE 07:23:02 68° ENE 07:29:13 10° N
Cosmos 1844 3.8 07:19:48 24° SSW 07:23:26 79° ESE 07:29:15 10° NNE
Cosmos 921 Rocket 2.9 07:22:08 10° NNW 07:26:23 85° ENE 07:30:20 11° SSE
Cosmos 1606 Rocket 3.5 07:26:21 10° N 07:30:49 85° W 07:34:19 16° S
NOSS 3-2 (C) 4.2 07:28:54 16° WSW 07:32:47 39° NW 07:38:37 10° NNE
Cosmos 2263 Rocket 4.1 07:29:00 10° W 07:32:51 19° NW 07:36:43 10° N
USA 267 3.5 07:28:08 10° NE 07:34:36 59° SE 07:39:25 19° SSW
Cosmos 2058 3.8 07:34:18 11° SSE 07:37:56 44° E 07:41:49 10° NNE
Meteor 1-28 Rocket 2.9 07:35:58 16° SSE 07:38:45 87° WSW 07:42:19 10° NNW
BREEZE-M DEB (TANK) 3.9 07:34:40 18° SSW 07:40:21 39° SSE 07:43:37 10° E
Iridium 2 2.4 07:44:41 31° S 07:45:41 89° W 07:48:09 10° N
Cosmos 1726 Rocket 3.5 07:41:27 10° N 07:45:54 79° W 07:50:09 11° S
Cosmos 1727 Rocket 4.5 07:40:33 10° NNW 07:46:30 44° W 07:51:19 16° SSW
Alouette 2 Rocket 3.6 07:44:26 15° S 07:48:26 81° ESE 07:52:11 10° NNE
Cosmos 1238 Rocket 3.9 07:45:27 10° N 07:48:31 33° ENE 07:51:18 10° SE
Cosmos 1844 Rocket 3.0 07:47:26 18° SW 07:51:26 55° WNW 07:56:55 10° NNE
Cosmos 724 4.4 07:49:26 10° NNW 07:55:16 81° ENE 08:01:08 10° SE
Cosmos 1437 Rocket 4.2 07:54:44 16° WSW 07:56:34 22° WNW 07:59:36 10° NNW
Delta 2 Rocket 4.4 07:57:55 19° SW 07:59:26 23° SSW 08:02:48 10° SE
SEDSat Delta rocket 4.4 07:59:34 16° SSW 08:00:40 17° S 08:03:21 10° SE
SAR-Lupe-1 4.0 07:58:32 10° NNE 08:02:08 89° E 08:05:16 13° SSW
IDEFIX/ARIANE 42P 4.2 08:01:08 10° NNW 08:04:56 21° WNW 08:08:40 10° WSW
ASTEX 1 3.9 08:04:21 13° SSW 08:08:28 42° W 08:13:05 10° NNW
USA 234 4.5 08:03:00 10° E 08:09:10 46° NNE 08:15:21 10° NW
CZ-2C R/B 3.2 08:08:59 10° NNE 08:13:21 45° E 08:17:45 10° S
Envisat 3.2 08:09:22 10° NNE 08:14:27 76° ESE 08:19:31 10° S
Timation 2 Rocket 4.1 08:08:33 12° SSW 08:14:48 80° WNW 08:21:13 10° NNE
CZ-2C R/B 4.3 08:10:26 10° N 08:14:54 27° WNW 08:19:01 11° WSW
Cosmos 2278 Rocket 4.4 08:12:30 10° SSE 08:16:37 21° E 08:20:46 10° NE
Cosmos 1048 Rocket 4.4 08:12:14 10° NNW 08:17:10 43° WSW 08:22:08 10° S
Lacrosse 5 4.4 08:16:30 10° SE 08:18:03 11° ESE 08:19:37 10° E
CZ-2C R/B 4.1 08:17:59 12° SW 08:21:01 18° W 08:24:37 10° NW
CZ-2D R/B 3.7 08:18:40 10° NNW 08:22:34 21° WNW 08:26:26 10° WSW
Cosmos 1125 Rocket 3.9 08:21:21 11° SW 08:26:17 51° WNW 08:31:27 10° N
Genesis I 4.0 08:23:07 10° NNW 08:26:40 52° NE 08:30:12 10° SE
BREEZE M DEB (TANK) 4.4 08:15:49 10° WNW 08:26:45 59° NNE 08:30:16 10° E
Cosmos 2058 Rocket 3.2 08:22:26 10° NNW 08:26:46 54° W 08:31:01 10° S
Cosmos 1271 Rocket 4.2 08:23:43 10° SSE 08:26:57 33° E 08:30:12 10° NNE
UNK 4.0 08:22:31 10° S 08:26:58 49° W 08:31:26 10° NNW
Cosmos 1544 2.5 08:24:37 11° SSW 08:27:03 49° W 08:29:37 10° N
Cosmos 1758 Rocket 4.1 08:26:21 10° S 08:30:42 60° E 08:35:03 10° NNE
Cosmos 1607 4.3 08:26:15 10° NW 08:32:16 45° WSW 08:38:09 10° S
NOSS 2-2 (E) 3.3 08:35:05 10° SSW 08:38:28 55° ESE 08:41:31 10° NE
YAOGAN 6 2.4 08:35:33 10° NNE 08:38:45 74° E 08:41:54 10° S
Cosmos 2150 Rocket 4.1 08:36:36 10° SSW 08:41:47 67° WNW 08:47:05 10° NNE
Cosmos 1812 3.9 08:39:06 10° NW 08:41:56 22° W 08:44:45 10° SW
Iridium 4 Rocket 3.8 08:37:53 10° NNW 08:42:08 42° W 08:46:42 10° SSW
ADEOS II 3.7 08:38:35 10° NNW 08:42:23 21° WNW 08:46:09 10° WSW
ALOS 3.5 08:39:16 10° N 08:43:08 27° WNW 08:46:58 10° SW
SWAS 4.5 08:39:50 10° SSW 08:44:00 73° WNW 08:48:13 10° NNE
Cosmos 1605 Rocket 4.2 08:39:33 10° SSW 08:45:35 54° WNW 08:51:36 10° N
PAYLOAD A 4.2 08:41:14 10° NNE 08:46:30 85° ESE 08:51:52 10° SSW
